TimePST,TemperatureF,Dew PointF,Humidity,Sea Level PressureIn,VisibilityMPH,Wind Direction,Wind SpeedMPH,Gust SpeedMPH,PrecipitationIn,Events,Conditions,WindDirDegrees,DateUTC
12:56 AM,57.9,41.0,53,29.89,10.0,West,8.1,-,N/A,,Clear,280,2012-12-06 08:56:00
1:56 AM,57.0,41.0,55,29.89,10.0,WSW,3.5,-,N/A,,Clear,240,2012-12-06 09:56:00
2:56 AM,54.0,39.9,59,29.88,10.0,Calm,Calm,-,N/A,,Clear,0,2012-12-06 10:56:00
3:56 AM,53.1,39.9,61,29.87,10.0,SW,3.5,-,N/A,,Clear,220,2012-12-06 11:56:00
4:56 AM,54.0,41.0,62,29.87,10.0,WNW,5.8,-,N/A,,Clear,290,2012-12-06 12:56:00
5:56 AM,54.0,41.0,62,29.88,10.0,WSW,5.8,-,N/A,,Clear,250,2012-12-06 13:56:00
6:56 AM,55.0,41.0,59,29.88,10.0,West,4.6,-,N/A,,Clear,260,2012-12-06 14:56:00
7:56 AM,59.0,42.1,53,29.90,10.0,WSW,5.8,-,N/A,,Clear,250,2012-12-06 15:56:00
8:56 AM,62.1,42.1,48,29.91,10.0,Calm,Calm,-,N/A,,Clear,0,2012-12-06 16:56:00
9:56 AM,64.0,43.0,46,29.90,10.0,Calm,Calm,-,N/A,,Clear,0,2012-12-06 17:56:00
10:56 AM,66.9,42.1,40,29.88,10.0,Variable,3.5,-,N/A,,Clear,0,2012-12-06 18:56:00
11:56 AM,70.0,42.1,36,29.84,-9999.0,North,-9999.0,-,N/A,,Clear,0,2012-12-06 19:56:00
12:56 PM,72.0,43.0,35,29.81,10.0,NNE,4.6,-,N/A,,Clear,20,2012-12-06 20:56:00
1:56 PM,73.0,42.1,33,29.79,10.0,Calm,Calm,-,N/A,,Clear,0,2012-12-06 21:56:00
2:56 PM,75.9,39.9,27,29.78,10.0,NNE,5.8,-,N/A,,Clear,20,2012-12-06 22:56:00
3:56 PM,73.9,39.9,29,29.77,10.0,Calm,Calm,-,N/A,,Clear,0,2012-12-06 23:56:00
4:56 PM,68.0,39.9,36,29.78,10.0,West,4.6,-,N/A,,Clear,280,2012-12-07 00:56:00
5:56 PM,66.9,39.0,36,29.80,10.0,WNW,6.9,-,N/A,,Clear,300,2012-12-07 01:56:00
6:56 PM,64.0,39.0,40,29.81,10.0,NW,5.8,-,N/A,,Clear,310,2012-12-07 02:56:00
7:56 PM,62.1,39.0,43,29.82,10.0,WSW,9.2,-,N/A,,Clear,250,2012-12-07 03:56:00
8:56 PM,62.1,39.0,43,29.83,10.0,SW,9.2,-,N/A,,Clear,230,2012-12-07 04:56:00
9:56 PM,61.0,39.0,44,29.83,10.0,WSW,5.8,-,N/A,,Clear,240,2012-12-07 05:56:00
10:56 PM,57.9,39.0,49,29.84,10.0,WSW,6.9,-,N/A,,Clear,240,2012-12-07 06:56:00
11:56 PM,57.0,39.0,51,29.84,10.0,WSW,4.6,-,N/A,,Clear,250,2012-12-07 07:56:00